Location: Castelbiague
(43.0361°N, 0.9246°E)
Time: 12:43:51
(UTC+00:00)

Cosmos 1892 Rocket - Pass Details

Date: 17 June 2021
Orbit: 605 x 633 km, 82.5° (Epoch: 29 July)

Event Time Altitude Azimuth Distance (km) Brightness Sun altitude
Exits shadow 22:29:32 35° 101° (ESE) 1,013 4.3 -20.5°
Maximum altitude 22:29:52 35° 91° (E) 1,003 4.4 -20.6°
Drops below altitude 10° 22:33:55 10° 25° (NNE) 2,010 6.8 -20.8°
Sets 22:36:18 0° 17° (NNE) 2,926 7.9 -21.0°
